Главная страница
METAR-TAF:

METAR-TAF

Аэропорты :

Миккели, Финляндия

широта: 61-44N, долгота: 027-18E, высота над уровнем моря: 138 м

Текущие метеонаблюдения

Эта сводка был подготовлена 43 минут назад, в 05:50 UTC
Ветер 2 Узел от юго-юго-восточный
Температура 15°C
Влажность 94%
Давление 1014 hPa
Видимость 10 км и более
Нет облачности ниже 1500 м, и нет кучево-дождевой облачности

METAR: EFMI 210550Z AUTO 15002KT CAVOK 15/14 Q1014

Время: 09:33 (06:33 UTC)


TAF: отсутствует

Метеонаблюдения и прогнозы для более 4000 аэропортов (сводки METAR и TAF).

Имеющиеся станции представлены на карте желтыми и красными точками.

Чтобы увидеть название станции, наведите на нее мышь.

Затем щелкните, чтобы увидеть метеонаблюдения и метеопрогнозы.

Управление картой: чтобы увеличить масштаб, щелкните зеленые кнопки с черным крестиком; чтобы уменьшить масштаб, щелкните зеленую кнопку с тире; для просмотра соседних карт щелкайте зеленые стрелки.


METAR-TAF: